Tracking 30918 objects as of 2-Jul-2025
HD Live streaming from Space Station
objects crossing your sky now

COSMOS 1288

Track COSMOS 1288 now!
10-day predictions
COSMOS 1288 is classified as:


NORAD ID: 12637
Int'l Code: 1981-074B
Perigee: 1,472.0 km
Apogee: 1,498.9 km
Inclination: 74.0 °
Period: 115.5 minutes
Semi major axis: 7856 km
RCS: 0.6864 m2 (medium)
Launch date: August 6, 1981
Source: Commonwealth of Independent States (former USSR) (CIS)
Launch site: PLESETSK MISSILE AND SPACE COMPLEX (PKMTR)
Your satellite tracking list
METEOR 2-17 DEB
Track 1 satellite(s)




NASA's NSSDC Master Catalog

Two Line Element Set (TLE):
1 12637U 81074B   25182.82013633 -.00000018  00000-0 -17696-4 0  9997
2 12637  74.0304 211.1108 0017081  76.4243  96.7485 12.46706681997977
Source of the keplerian elements: AFSPC